Weather History for Dunkirk, NY

Change the Weather History Date:

Friday, January 17, 2014

  Actual Average Record
Temperature  
Mean Temperature 31 °F -  
Max Temperature 36 °F 31 °F 56 °F (1932)
Min Temperature 26 °F 17 °F -13 °F (1982)
Degree Days  
Heating Degree Days 34    
Moisture  
Dew Point 23 °F    
Average Humidity 73    
Maximum Humidity 93    
Minimum Humidity 50    
Precipitation  
Precipitation 0.00 in - - ()
Sea Level Pressure  
Sea Level Pressure 29.80 in    
Wind  
Wind Speed 12 mph (SSW)    
Max Wind Speed 25 mph    
Max Gust Speed 34 mph    
Visibility 7 miles    
Events Fog , Snow    
Averages and records for this station are not official NWS values.
T = Trace of Precipitation, MM = Missing Value Source: NWS Daily Summary

Daily Weather History Graph

Daily Weather History Graph

Search for Another Location

Airport:

Trip Planner

Search our weather history database for the weather conditions in past years. The results will help you decide how hot, cold, wet, or windy it might be!

Date:

Astronomy

Jan. 17, 2014 Rise Set
Actual Time 7:43 AM EST 5:11 PM EST
Civil Twilight 7:12 AM EST 5:42 PM EST
Nautical Twilight 6:37 AM EST 6:17 PM EST
Astronomical Twilight 6:03 AM EST 6:51 PM EST
Moon 6:59 PM EST (1/17) 8:07 AM EST (1/17)
Length of Visible Light 10h 30m
Length of Day
9h 28m
Full, 98% of the Moon is Illuminated
Jan 17
Full
Jan 24
Last Quarter
Jan 30
New
Feb 6
First Quarter
Feb 14
Full

Hourly Weather History & Observations

Time (EST) Temp. Windchill Dew Point Humidity Pressure Visibility Wind Dir Wind Speed Gust Speed Precip Events Conditions
12:53 AM 30.0 °F 18.7 °F 19.9 °F 66% 29.78 in 10.0 mi South 16.1 mph - N/A   Overcast
1:53 AM 30.0 °F 20.0 °F 21.0 °F 69% 29.78 in 8.0 mi South 12.7 mph 20.7 mph 0.00 in Snow Light Snow
2:01 AM 28.4 °F 20.4 °F 21.2 °F 74% 29.75 in 5.0 mi South 8.1 mph 20.7 mph 0.00 in Snow Light Snow
2:11 AM 30.2 °F 21.3 °F 21.2 °F 69% 29.75 in 7.0 mi South 10.4 mph 19.6 mph 0.00 in Snow Light Snow
2:53 AM 28.9 °F 17.3 °F 23.0 °F 78% 29.78 in 4.0 mi South 16.1 mph 19.6 mph 0.00 in Snow Light Snow
3:17 AM 28.4 °F 21.2 °F 23.0 °F 80% 29.74 in 7.0 mi South 6.9 mph 19.6 mph 0.00 in Snow Light Snow
3:27 AM 28.4 °F 19.1 °F 24.8 °F 86% 29.75 in 3.0 mi SSW 10.4 mph 20.7 mph 0.00 in Snow Light Snow
3:48 AM 28.4 °F 17.0 °F 24.8 °F 86% 29.74 in 5.0 mi South 15.0 mph 19.6 mph 0.00 in Snow Light Snow
3:53 AM 28.9 °F 19.2 °F 23.0 °F 78% 29.77 in 7.0 mi South 11.5 mph - 0.00 in Snow Light Snow
4:53 AM 30.0 °F 18.7 °F 23.0 °F 75% 29.75 in 10.0 mi South 16.1 mph 28.8 mph 0.00 in   Overcast
5:01 AM 30.2 °F 19.3 °F 23.0 °F 75% 29.73 in 10.0 mi South 15.0 mph 20.7 mph N/A   Overcast
5:53 AM 30.9 °F 21.2 °F 24.1 °F 76% 29.76 in 9.0 mi SSW 12.7 mph 21.9 mph 0.00 in Snow Light Snow
6:36 AM 32.0 °F 24.2 °F 24.8 °F 75% 29.74 in 10.0 mi SSW 9.2 mph - 0.00 in   Overcast
6:53 AM 32.0 °F 22.5 °F 23.0 °F 69% 29.77 in 10.0 mi SSW 12.7 mph 20.7 mph 0.00 in   Overcast
8:53 AM 33.1 °F 24.4 °F 19.9 °F 59% 29.81 in 10.0 mi SW 11.5 mph 28.8 mph N/A   Mostly Cloudy
9:53 AM 34.0 °F 25.0 °F 19.9 °F 56% 29.82 in 10.0 mi SW 12.7 mph 23.0 mph N/A   Clear
10:53 AM 36.0 °F 26.7 °F 19.0 °F 50% 29.83 in 10.0 mi SW 15.0 mph 26.5 mph N/A   Partly Cloudy
11:53 AM 36.0 °F 27.1 °F 19.9 °F 52% 29.83 in 10.0 mi WSW 13.8 mph 25.3 mph N/A   Partly Cloudy
12:53 PM 36.0 °F 27.5 °F 21.0 °F 55% 29.82 in 10.0 mi West 12.7 mph 20.7 mph N/A   Clear
1:53 PM 34.0 °F 26.0 °F 19.9 °F 56% 29.82 in 10.0 mi West 10.4 mph - N/A   Partly Cloudy
2:53 PM 35.1 °F 29.3 °F 21.0 °F 57% 29.82 in 10.0 mi West 6.9 mph - N/A   Clear
3:53 PM 34.0 °F - 19.9 °F 56% 29.82 in 10.0 mi Calm Calm - N/A   Overcast
4:53 PM 33.1 °F 30.0 °F 21.0 °F 61% 29.83 in 10.0 mi North 3.5 mph - N/A   Scattered Clouds
5:53 PM 30.0 °F 25.2 °F 21.0 °F 69% 29.82 in 10.0 mi East 4.6 mph - N/A   Overcast
6:53 PM 30.0 °F - 21.0 °F 69% 29.83 in 10.0 mi Calm Calm - N/A   Clear
7:53 PM 28.0 °F - 21.9 °F 78% 29.83 in 10.0 mi Calm Calm - N/A   Mostly Cloudy
8:53 PM 28.9 °F - 24.1 °F 82% 29.82 in 10.0 mi Calm Calm - N/A   Overcast
9:53 PM 35.1 °F 28.6 °F 25.0 °F 67% 29.82 in 9.0 mi South 8.1 mph - 0.00 in Snow Light Snow
10:23 PM 33.8 °F 25.3 °F 26.6 °F 75% 29.81 in 2.0 mi SSW 11.5 mph 23.0 mph 0.00 in Snow Light Snow
10:31 PM 32.0 °F 24.2 °F 28.4 °F 87% 29.81 in 1.5 mi SSW 9.2 mph - 0.00 in Snow Light Snow
10:38 PM 32.0 °F 24.8 °F 30.2 °F 93% 29.82 in 0.8 mi SSW 8.1 mph - 0.00 in Snow Light Snow
10:45 PM 30.2 °F 17.4 °F 28.4 °F 93% 29.83 in 0.5 mi WSW 20.7 mph 29.9 mph 0.00 in Fog , Snow Snow
10:53 PM 28.9 °F 15.8 °F 26.1 °F 89% 29.86 in 1.5 mi WSW 20.7 mph 29.9 mph 0.00 in Snow Light Snow
11:08 PM 28.4 °F 15.4 °F 24.8 °F 86% 29.83 in 1.5 mi WSW 19.6 mph 31.1 mph 0.00 in Snow Light Snow
11:23 PM 28.4 °F 14.7 °F 24.8 °F 86% 29.83 in 1.0 mi WSW 21.9 mph 34.5 mph 0.00 in Snow Light Snow
11:45 PM 26.6 °F 12.7 °F 23.0 °F 86% 29.83 in 2.0 mi WSW 20.7 mph 32.2 mph 0.00 in Snow Light Snow
11:53 PM 27.0 °F 11.9 °F 23.0 °F 85% 29.86 in 4.0 mi WSW 25.3 mph 31.1 mph 0.00 in Snow Light Snow